This is the latest recevied weather packets stored in our database for station/object K1RFS. If no packets are shown the sender has not sent any weather packets the latest 10 day(s).
| Time | Temp. | Humidity | Pressure | Rain* | Wind** | Luminosity | Snow |
|---|---|---|---|---|---|---|---|
| 1777733875 | 12.78° C | 44% | 1006.3 hPa | 0 mm | - | 30 W/m² | - |
| 1777733572 | 12.78° C | 44% | 1006.3 hPa | 0 mm | - | 29 W/m² | - |
| 1777733268 | 12.22° C | 45% | 1006.3 hPa | 0 mm | - | 29 W/m² | - |
| 1777732965 | 12.22° C | 48% | 1006.2 hPa | 0 mm | - | 28 W/m² | - |
| 1777732660 | 11.67° C | 48% | 1006.1 hPa | 0 mm | - | 27 W/m² | - |
| 1777732358 | 11.67° C | 49% | 1006.1 hPa | 0 mm | - | 27 W/m² | - |
| 1777732056 | 11.11° C | 46% | 1006.1 hPa | 0 mm | - | 26 W/m² | - |
| 1777731752 | 10.56° C | 44% | 1006.1 hPa | 0 mm | - | 25 W/m² | - |
| 1777731450 | 10.56° C | 44% | 1006.2 hPa | 0 mm | - | 25 W/m² | - |
| 1777731148 | 10° C | 43% | 1006.1 hPa | 0 mm | - | 25 W/m² | - |
| 1777730846 | 10° C | 43% | 1006 hPa | 0 mm | - | 24 W/m² | - |
| 1777730543 | 9.44° C | 43% | 1006 hPa | 0 mm | - | 24 W/m² | - |
| 1777730238 | 8.89° C | 45% | 1006 hPa | 0 mm | - | 24 W/m² | - |
| 1777729936 | 8.33° C | 46% | 1006 hPa | 0 mm | - | 23 W/m² | - |
| 1777729631 | 8.33° C | 46% | 1005.8 hPa | 0 mm | - | 23 W/m² | - |
| 1777729329 | 8.33° C | 45% | 1006 hPa | 0 mm | - | 22 W/m² | - |
| 1777729025 | 7.78° C | 44% | 1005.8 hPa | 0 mm | - | 21 W/m² | - |
| 1777728722 | 7.22° C | 44% | 1006 hPa | 0 mm | - | 20 W/m² | - |
| 1777728418 | 7.22° C | 44% | 1006.1 hPa | 0 mm | - | 19 W/m² | - |
| 1777728116 | 6.67° C | 46% | 1006.1 hPa | 0 mm | - | 18 W/m² | - |
| 1777727813 | 7.22° C | 44% | 1006 hPa | 0 mm | - | 17 W/m² | - |
| 1777727510 | 6.67° C | 44% | 1005.7 hPa | 0 mm | - | 16 W/m² | - |
| 1777727207 | 6.67° C | 45% | 1005.7 hPa | 0 mm | - | 14 W/m² | - |
| 1777726905 | 6.11° C | 46% | 1005.7 hPa | 0 mm | - | 13 W/m² | - |
| 1777726601 | 6.11° C | 46% | 1005.7 hPa | 0 mm | - | 12 W/m² | - |
* Rain latest hour (hover to see other rain measurements)
** Current wind speed in m/s (hover to see current wind gust speed)